When you browse on this site, cookies collect data to enhance your experience and personalize the content and advertising you see.
Visit our Privacy Policy to learn more. By continuing to use the site, you agree to this use of cookies and data.
  • In Österreich
  • Länderverzeichnis
  • Für 7 Tage
  • Wassertemperatur
  • Satellitenkarten
  • Wetterkarte
  • News
  • Widgets
  • user-avatar
    Anmelden

    Stündliche Wetter Chinsali

    Heute, 11 Dezember, Dienstag

    Zeit Temperatur Niederschläge Wind Luftdruck Luftfeuchtigkeit
    00:00 +19°C° 0.1 mm 1 m/S 647 mmHg 97%
    01:00 +18°C° 0.1 mm 1 m/S 647 mmHg 97%
    02:00 +18°C° 0 mm 1 m/S 647 mmHg 97%
    03:00 +18°C° 0 mm 1 m/S 647 mmHg 98%
    04:00 +18°C° 0 mm 1 m/S 647 mmHg 98%
    05:00 +18°C° 0 mm 1 m/S 647 mmHg 98%
    06:00 +19°C° 0 mm 1 m/S 647 mmHg 94%
    07:00 +20°C° 0 mm 1 m/S 648 mmHg 90%
    08:00 +22°C° 0 mm 1 m/S 649 mmHg 85%
    09:00 +23°C° 0.4 mm 1 m/S 649 mmHg 81%
    10:00 +24°C° 0.4 mm 1 m/S 649 mmHg 76%
    11:00 +25°C° 0.4 mm 1 m/S 649 mmHg 71%
    12:00 +26°C° 0.8 mm 1 m/S 648 mmHg 69%
    13:00 +27°C° 0.8 mm 1 m/S 648 mmHg 67%
    14:00 +26°C° 0.8 mm 0 m/S 647 mmHg 65%
    15:00 +25°C° 0.9 mm 0 m/S 647 mmHg 69%
    16:00 +24°C° 0.9 mm 0 m/S 646 mmHg 72%
    17:00 +23°C° 0.9 mm 0 m/S 646 mmHg 76%
    18:00 +22°C° 2.3 mm 0 m/S 646 mmHg 80%
    19:00 +21°C° 2.3 mm 0 m/S 646 mmHg 83%
    20:00 +19°C° 2.3 mm 0 m/S 646 mmHg 87%
    21:00 +19°C° 0.4 mm 0 m/S 646 mmHg 87%
    22:00 +19°C° 0.4 mm 0 m/S 647 mmHg 87%
    23:00 +18°C° 0.4 mm 0 m/S 647 mmHg 87%

    Morgen, 12 Dezember, Mittwoch

    Zeit Temperatur Niederschläge Wind Luftdruck Luftfeuchtigkeit
    00:00 +18°C° 0.4 mm 0 m/S 646 mmHg 88%
    01:00 +20°C° 0.4 mm 1 m/S 646 mmHg 89%
    02:00 +20°C° 0.4 mm 1 m/S 646 mmHg 90%
    03:00 +20°C° 0.4 mm 1 m/S 646 mmHg 91%
    04:00 +19°C° 0.4 mm 1 m/S 646 mmHg 92%
    05:00 +19°C° 0.4 mm 1 m/S 646 mmHg 93%
    06:00 +20°C° 0.3 mm 1 m/S 647 mmHg 92%
    07:00 +19°C° 0.3 mm 2 m/S 647 mmHg 91%
    08:00 +20°C° 0.3 mm 2 m/S 648 mmHg 90%
    09:00 +21°C° 0.3 mm 2 m/S 648 mmHg 84%
    10:00 +23°C° 0.3 mm 2 m/S 648 mmHg 79%
    11:00 +24°C° 0.3 mm 3 m/S 648 mmHg 74%
    12:00 +24°C° 0.3 mm 3 m/S 648 mmHg 72%
    13:00 +25°C° 0.3 mm 3 m/S 647 mmHg 70%
    14:00 +25°C° 0.3 mm 2 m/S 647 mmHg 68%
    15:00 +25°C° 0.2 mm 2 m/S 647 mmHg 72%
    16:00 +24°C° 0.2 mm 1 m/S 646 mmHg 75%
    17:00 +23°C° 0.2 mm 1 m/S 646 mmHg 79%
    18:00 +22°C° 0.9 mm 1 m/S 646 mmHg 83%
    19:00 +21°C° 0.9 mm 1 m/S 647 mmHg 88%
    20:00 +18°C° 0.9 mm 0 m/S 647 mmHg 92%
    21:00 +18°C° 1.2 mm 0 m/S 647 mmHg 92%
    22:00 +18°C° 1.2 mm 0 m/S 648 mmHg 93%
    23:00 +18°C° 1.2 mm 0 m/S 648 mmHg 93%

    übermorgen, 13 Dezember, Donnerstag

    Zeit Temperatur Niederschläge Wind Luftdruck Luftfeuchtigkeit
    00:00 +18°C° 1.1 mm 0 m/S 648 mmHg 93%
    01:00 +20°C° 1.1 mm 1 m/S 647 mmHg 93%
    02:00 +20°C° 1.1 mm 1 m/S 647 mmHg 94%
    03:00 +19°C° 0.7 mm 1 m/S 647 mmHg 94%
    04:00 +19°C° 0.7 mm 1 m/S 647 mmHg 94%
    05:00 +19°C° 0.7 mm 1 m/S 647 mmHg 95%
    06:00 +19°C° 1 mm 1 m/S 648 mmHg 94%
    07:00 +20°C° 1 mm 1 m/S 648 mmHg 94%
    08:00 +20°C° 1 mm 1 m/S 649 mmHg 94%
    09:00 +20°C° 1.5 mm 1 m/S 649 mmHg 93%
    10:00 +20°C° 1.5 mm 1 m/S 649 mmHg 93%
    11:00 +20°C° 1.5 mm 1 m/S 649 mmHg 93%
    12:00 +20°C° 0.4 mm 2 m/S 648 mmHg 89%
    13:00 +21°C° 0.4 mm 2 m/S 648 mmHg 85%
    14:00 +23°C° 0.4 mm 2 m/S 647 mmHg 82%
    15:00 +23°C° 0.3 mm 1 m/S 647 mmHg 82%
    16:00 +23°C° 0.3 mm 1 m/S 647 mmHg 82%
    17:00 +23°C° 0.3 mm 1 m/S 646 mmHg 83%
    18:00 +22°C° 0.5 mm 1 m/S 647 mmHg 87%
    19:00 +21°C° 0.5 mm 1 m/S 647 mmHg 90%
    20:00 +20°C° 0.5 mm 1 m/S 647 mmHg 94%
    21:00 +19°C° 0.2 mm 1 m/S 647 mmHg 94%
    22:00 +17°C° 0.2 mm 0 m/S 648 mmHg 94%
    23:00 +17°C° 0.2 mm 0 m/S 648 mmHg 95%

    14 Dezember, Freitag

    Zeit Temperatur Niederschläge Wind Luftdruck Luftfeuchtigkeit
    00:00 +17°C° 0.2 mm 0 m/S 647 mmHg 95%
    01:00 +17°C° 0.2 mm 0 m/S 647 mmHg 95%
    02:00 +18°C° 0.2 mm 1 m/S 646 mmHg 96%
    03:00 +18°C° 0.1 mm 1 m/S 646 mmHg 96%
    04:00 +18°C° 0.1 mm 1 m/S 647 mmHg 96%
    05:00 +18°C° 0.1 mm 1 m/S 647 mmHg 96%
    06:00 +19°C° 0.2 mm 1 m/S 648 mmHg 94%
    07:00 +20°C° 0.2 mm 1 m/S 648 mmHg 91%
    08:00 +21°C° 0.2 mm 1 m/S 649 mmHg 89%
    09:00 +22°C° 0.7 mm 1 m/S 649 mmHg 85%
    10:00 +23°C° 0.7 mm 1 m/S 649 mmHg 81%
    11:00 +24°C° 0.7 mm 1 m/S 649 mmHg 78%
    12:00 +25°C° 0.7 mm 1 m/S 648 mmHg 76%
    13:00 +25°C° 0.7 mm 1 m/S 648 mmHg 74%
    14:00 +25°C° 0.7 mm 1 m/S 647 mmHg 72%
    15:00 +25°C° 0.7 mm 1 m/S 647 mmHg 76%
    16:00 +24°C° 0.7 mm 1 m/S 646 mmHg 81%
    17:00 +23°C° 0.7 mm 1 m/S 646 mmHg 85%
    18:00 +22°C° 0.3 mm 1 m/S 646 mmHg 88%
    19:00 +21°C° 0.3 mm 1 m/S 647 mmHg 91%
    20:00 +18°C° 0.3 mm 0 m/S 647 mmHg 93%
    21:00 +18°C° 0.3 mm 0 m/S 647 mmHg 93%
    22:00 +18°C° 0.3 mm 0 m/S 647 mmHg 92%
    23:00 +18°C° 0.3 mm 0 m/S 648 mmHg 92%

    15 Dezember, Samstag

    Zeit Temperatur Niederschläge Wind Luftdruck Luftfeuchtigkeit
    00:00 +18°C° 0.7 mm 0 m/S 647 mmHg 92%
    01:00 +18°C° 0.7 mm 0 m/S 647 mmHg 92%
    02:00 +18°C° 0.7 mm 0 m/S 646 mmHg 92%
    03:00 +17°C° 0.3 mm 0 m/S 646 mmHg 92%
    04:00 +17°C° 0.3 mm 0 m/S 647 mmHg 92%
    05:00 +17°C° 0.3 mm 0 m/S 647 mmHg 92%
    06:00 +18°C° 0.3 mm 0 m/S 648 mmHg 89%
    07:00 +20°C° 0.3 mm 0 m/S 648 mmHg 86%
    08:00 +21°C° 0.3 mm 0 m/S 649 mmHg 82%
    09:00 +22°C° 1 mm 0 m/S 649 mmHg 79%
    10:00 +23°C° 1 mm 0 m/S 649 mmHg 75%
    11:00 +24°C° 1 mm 0 m/S 649 mmHg 71%
    12:00 +25°C° 1.6 mm 0 m/S 648 mmHg 71%
    13:00 +27°C° 1.6 mm 1 m/S 648 mmHg 71%
    14:00 +27°C° 1.6 mm 1 m/S 647 mmHg 71%
    15:00 +26°C° 1.9 mm 1 m/S 647 mmHg 76%
    16:00 +25°C° 1.9 mm 1 m/S 647 mmHg 81%
    17:00 +24°C° 1.9 mm 1 m/S 647 mmHg 86%
    18:00 +23°C° 1.3 mm 1 m/S 647 mmHg 88%
    19:00 +22°C° 1.3 mm 1 m/S 647 mmHg 90%
    20:00 +19°C° 1.3 mm 2 m/S 647 mmHg 92%
    21:00 +20°C° 0.3 mm 1 m/S 647 mmHg 93%
    22:00 +20°C° 0.3 mm 1 m/S 647 mmHg 93%
    23:00 +20°C° 0.3 mm 1 m/S 648 mmHg 94%

    16 Dezember, Sonntag

    Zeit Temperatur Niederschläge Wind Luftdruck Luftfeuchtigkeit
    00:00 +20°C° 0.3 mm 1 m/S 647 mmHg 94%
    01:00 +19°C° 0.3 mm 1 m/S 647 mmHg 94%
    02:00 +19°C° 0.3 mm 1 m/S 646 mmHg 94%
    03:00 +19°C° 0.3 mm 1 m/S 646 mmHg 94%
    04:00 +19°C° 0.3 mm 1 m/S 647 mmHg 94%
    05:00 +19°C° 0.3 mm 1 m/S 647 mmHg 95%
    06:00 +20°C° 0.3 mm 1 m/S 648 mmHg 92%
    07:00 +21°C° 0.3 mm 1 m/S 648 mmHg 89%
    08:00 +22°C° 0.3 mm 1 m/S 649 mmHg 87%
    09:00 +23°C° 1.1 mm 1 m/S 649 mmHg 84%
    10:00 +24°C° 1.1 mm 1 m/S 649 mmHg 82%
    11:00 +24°C° 1.1 mm 1 m/S 648 mmHg 79%
    12:00 +25°C° 0.8 mm 1 m/S 648 mmHg 77%
    13:00 +26°C° 0.8 mm 1 m/S 647 mmHg 74%
    14:00 +26°C° 0.8 mm 1 m/S 647 mmHg 71%
    15:00 +26°C° 0.7 mm 1 m/S 647 mmHg 74%
    16:00 +25°C° 0.7 mm 1 m/S 646 mmHg 77%
    17:00 +25°C° 0.7 mm 1 m/S 646 mmHg 80%
    18:00 +23°C° 1.6 mm 1 m/S 646 mmHg 84%
    19:00 +22°C° 1.6 mm 1 m/S 646 mmHg 88%
    20:00 +21°C° 1.6 mm 1 m/S 646 mmHg 93%
    21:00 +20°C° 0.7 mm 1 m/S 647 mmHg 93%
    22:00 +20°C° 0.7 mm 1 m/S 647 mmHg 93%
    23:00 +20°C° 0.7 mm 1 m/S 647 mmHg 94%
    Mehr zeigen